Eugene, OR

3:49 PM PST on November 15, 2019 (GMT -0800)
Mahlon Sweet

Weather History for KEUG - September, 2019

Change the Weather History Date:

Sunday, September 22, 2019

  Actual Average Record
Temperature  
Mean Temperature 62 °F 60 °F  
Max Temperature 70 °F 75 °F 95 °F (1989)
Min Temperature 54 °F 46 °F 34 °F (1961)
Degree Days  
Heating Degree Days 3 5  
Month to date heating degree days 42 70  
Since 1 July heating degree days 54 137  
Cooling Degree Days 0 1  
Month to date cooling degree days 43 29  
Year to date cooling degree days 351 237  
Growing Degree Days 12 (Base 50)    
Moisture  
Dew Point 56 °F    
Average Humidity 82    
Maximum Humidity 93    
Minimum Humidity 70    
Precipitation  
Precipitation 0.21 in 0.05 in 0.75 in (1948)
Month to date precipitation 4.25 0.86  
Year to date precipitation 27.46 26.87  
Sea Level Pressure  
Sea Level Pressure 29.96 in    
Wind  
Wind Speed 6 mph (SSW)    
Max Wind Speed 20 mph    
Max Gust Speed 22 mph    
Visibility 10 miles    
Events Rain    
T = Trace of Precipitation, MM = Missing Value Source: NWS Daily Summary

Daily Weather History Graph

Daily Weather History Graph

Search for Another Location

Airport or City:

Astronomy

Sep. 22, 2019 Rise Set
Actual Time 6:59 AM PDT 7:10 PM PDT
Civil Twilight 6:31 AM PDT 7:39 PM PDT
Nautical Twilight 5:57 AM PDT 8:13 PM PDT
Astronomical Twilight 5:22 AM PDT 8:47 PM PDT
Moon No Moon Rise 3:25 PM PDT (9/22)
Length of Visible Light 13h 08m
Length of Day
12h 10m
Last Quarter, 43% of the Moon is Illuminated
Sep 22
Last Quarter
Sep 28
New
Oct 5
First Quarter
Oct 13
Full
Oct 21
Last Quarter

Hourly Weather History & Observations

Time (PDT) Temp. Dew Point Humidity Pressure Visibility Wind Dir Wind Speed Gust Speed Precip Events Conditions
12:54 AM 55.9 °F 53.1 °F 90% 29.96 in 10.0 mi Calm Calm - N/A   Clear
1:54 AM 57.0 °F 54.0 °F 89% 29.96 in 10.0 mi SW 6.9 mph - N/A   Clear
2:54 AM 55.9 °F 54.0 °F 93% 29.94 in 10.0 mi SSE 5.8 mph - N/A   Clear
3:54 AM 55.0 °F 53.1 °F 93% 29.94 in 10.0 mi South 5.8 mph - N/A   Clear
4:54 AM 54.0 °F 52.0 °F 93% 29.94 in 10.0 mi South 5.8 mph - N/A   Clear
5:54 AM 55.9 °F 53.1 °F 90% 29.94 in 10.0 mi SSE 5.8 mph - N/A   Mostly Cloudy
6:37 AM 57.0 °F 54.0 °F 89% 29.94 in 10.0 mi South 9.2 mph - N/A   Mostly Cloudy
6:54 AM 57.0 °F 54.0 °F 89% 29.93 in 10.0 mi SE 5.8 mph - N/A   Mostly Cloudy
7:54 AM 57.9 °F 55.0 °F 90% 29.94 in 10.0 mi South 4.6 mph - 0.01 in Rain Light Rain
8:16 AM 57.9 °F 55.9 °F 93% 29.95 in 10.0 mi Calm Calm - 0.01 in Rain Light Rain
8:54 AM 57.9 °F 55.9 °F 93% 29.95 in 10.0 mi SE 5.8 mph - 0.02 in Rain Light Rain
9:08 AM 59.0 °F 55.9 °F 90% 29.95 in 10.0 mi SE 6.9 mph - 0.00 in Rain Light Rain
9:54 AM 59.0 °F 57.0 °F 93% 29.95 in 10.0 mi SSE 6.9 mph - 0.01 in   Overcast
10:54 AM 59.0 °F 57.0 °F 93% 29.92 in 6.0 mi SE 12.7 mph - 0.11 in Rain Light Rain
11:54 AM 62.1 °F 57.9 °F 86% 29.93 in 10.0 mi South 10.4 mph - 0.02 in   Mostly Cloudy
12:24 PM 64.0 °F 57.9 °F 80% 29.92 in 10.0 mi South 8.1 mph - N/A   Mostly Cloudy
12:54 PM 64.9 °F 59.0 °F 81% 29.91 in 10.0 mi South 4.6 mph - N/A   Mostly Cloudy
1:42 PM 66.0 °F 59.0 °F 78% 29.90 in 10.0 mi SSW 5.8 mph - 0.00 in Rain Light Rain
1:54 PM 66.9 °F 60.1 °F 79% 29.90 in 10.0 mi Variable 3.5 mph - 0.00 in   Overcast
2:17 PM 68.0 °F 57.9 °F 70% 29.90 in 10.0 mi South 15.0 mph - N/A   Overcast
2:54 PM 69.1 °F 59.0 °F 70% 29.90 in 10.0 mi SSW 10.4 mph - 0.00 in   Mostly Cloudy
3:54 PM 69.1 °F 59.0 °F 70% 29.91 in 10.0 mi West 6.9 mph - N/A   Overcast
4:41 PM 64.0 °F 59.0 °F 84% 29.93 in 10.0 mi WNW 10.4 mph - 0.02 in Rain Light Rain
4:54 PM 64.0 °F 59.0 °F 84% 29.93 in 10.0 mi WNW 8.1 mph - 0.03 in Rain Light Rain
5:01 PM 64.0 °F 60.1 °F 87% 29.93 in 10.0 mi NW 8.1 mph - 0.00 in   Mostly Cloudy
5:54 PM 63.0 °F 59.0 °F 87% 29.96 in 9.0 mi West 10.4 mph - 0.00 in Rain Light Rain
6:30 PM 63.0 °F 59.0 °F 87% 29.98 in 10.0 mi WSW 8.1 mph - 0.01 in Rain Light Rain
6:54 PM 63.0 °F 57.9 °F 84% 29.99 in 10.0 mi West 6.9 mph - 0.01 in Rain Light Rain
7:54 PM 61.0 °F 57.0 °F 87% 30.01 in 10.0 mi SW 6.9 mph - 0.00 in   Mostly Cloudy
8:54 PM 61.0 °F 57.0 °F 87% 30.05 in 10.0 mi WSW 5.8 mph - N/A   Mostly Cloudy
9:54 PM 59.0 °F 55.0 °F 87% 30.08 in 10.0 mi Calm Calm - N/A   Scattered Clouds
10:54 PM 55.9 °F 53.1 °F 90% 30.10 in 10.0 mi Calm Calm - N/A   Partly Cloudy
11:54 PM 55.0 °F 52.0 °F 89% 30.12 in 10.0 mi South 5.8 mph - N/A   Scattered Clouds